Regional Weather Roundup
Issued by NWS

Home | Current Version | Previous Version | Text Only | Print | Product List | Glossary Off
Versions: 1 2 3 4 5 6 7 8 9 10 11 12 13 14 15 16 17 18 19 20 21 22 23 24 25 26 27 28 29 30 31 32 33 34 35 36 37 38 39 40 41 42 43 44 45 46 47 48 49 50

943
ASUS44 KLIX 231310
RWRLA
LOUISIANA WEATHER ROUNDUP
NATIONAL WEATHER SERVICE NEW ORLEANS LA
800 AM CDT WED APR 23 2014

NOTE: "FAIR" INDICATES FEW OR NO CLOUDS BELOW 12,000 FEET WITH NO
      SIGNIFICANT WEATHER AND/OR OBSTRUCTIONS TO VISIBILITY.
      SKY/WX - SKY CONDITION AND SIGNIFICANT WEATHER.
      TMP - AIR TEMPERATURE.    DP   - DEWPOINT TEMPERATURE.
      RH  - RELATIVE HUMIDITY.  PRES - PRESSURE.
      HX  - HEAT INDEX.         WCI  - WIND CHILL INDEX.

*  THESE STATIONS ARE NOT NWS OR FAA STATIONS AND ARE NOT UNDER
   NWS QUALITY CONTROL.

LAZ040-048-061>063-065-066-069-231400-
SOUTHEAST LOUISIANA

CITY           SKY/WX    TMP DP  RH WIND       PRES   REMARKS
N.O. AUDUBON     N/A     70  64  82 MISG        N/A
N.O. INTL ARPT SUNNY     69  64  84 N10       29.98R
N.O. LAKEFRONT SUNNY     69  63  81 N10       29.98R
N.O. DOWNTOWN* FAIR      70  61  73 N7        29.98S
SLIDELL        SUNNY     64  60  87 N6        29.97S
BATON ROUGE    SUNNY     65  60  84 CALM      29.98S
BOOTHVILLE     SUNNY     67  66  97 NW3       29.98R FOG
BELLE CHASSE   SUNNY     66  63  90 CALM      29.97R FOG
BOGALUSA*        N/A     63  59  88 CALM      30.00R
GALLIANO*      SUNNY     59  58  97 CALM      29.98R
NEW ROADS*     FAIR      62  61  97 CALM      29.99S
GONZALES*      FAIR      64  63  96 CALM      29.98S
HAMMOND*       SUNNY     64  59  82 CALM      30.00S
HOUMA*         SUNNY     64  63  94 CALM      29.99R
PORT FOURCHON* SUNNY     72  68  88 N5        29.99R

$$

LAZ041-044-053-054-231400-
SOUTHWEST LOUISIANA

CITY           SKY/WX    TMP DP  RH WIND       PRES   REMARKS
LAKE CHARLES   CLOUDY    67  67 100 CALM      29.97R FOG
LAFAYETTE      SUNNY     64  61  90 CALM      29.98S
PATTERSON      SUNNY     64  63  94 CALM      30.02R
SALT POINT       N/A     69  64  84 N3        29.98R
NEW IBERIA     SUNNY     66  62  87 CALM      29.99R
CHENAULT AIRPK FOG       66  66 100 CALM      29.97S VSB 0

$$

LAZ027-028-231400-
CENTRAL LOUISIANA

CITY           SKY/WX    TMP DP  RH WIND       PRES   REMARKS
FORT POLK      SUNNY     63  60  90 CALM      29.98R
ALEXANDRIA INT SUNNY     62  60  93 CALM      29.98R FOG
ALEXANDRIA     SUNNY     60  56  86 CALM      29.99S

$$

LAZ001-002-231400-
NORTHWEST LOUISIANA

CITY           SKY/WX    TMP DP  RH WIND       PRES   REMARKS
SHREVEPORT     MOSUNNY   62  59  90 E3        29.97R FOG
BARKSDALE AFB  MOSUNNY   63  61  93 S3        29.98R
DTN SHREVEPORT MOSUNNY   63  60  90 SE3       29.98R

$$

LAZ014-016-231400-
NORTHEAST LOUISIANA

CITY           SKY/WX    TMP DP  RH WIND       PRES   REMARKS
MONROE         SUNNY     60  59  96 CALM      30.01R FOG
TALLULAH       SUNNY     61  59  93 CALM      30.01R

$$




USA.gov is the U.S. government's official web portal to all federal, state and local government web resources and services.